TimeCDT,TemperatureF,Dew PointF,Humidity,Sea Level PressureIn,VisibilityMPH,Wind Direction,Wind SpeedMPH,Gust SpeedMPH,PrecipitationIn,Events,Conditions,WindDirDegrees,DateUTC
12:53 AM,79.0,73.0,82,30.19,10.0,Calm,Calm,-,N/A,,Partly Cloudy,0,2013-07-18 05:53:00
1:53 AM,79.0,73.0,82,30.17,10.0,Calm,Calm,-,N/A,,Clear,0,2013-07-18 06:53:00
2:53 AM,80.1,72.0,76,30.15,10.0,Calm,Calm,-,N/A,,Clear,0,2013-07-18 07:53:00
3:53 AM,77.0,72.0,84,30.14,10.0,Calm,Calm,-,N/A,,Clear,0,2013-07-18 08:53:00
4:53 AM,75.9,72.0,87,30.14,10.0,Calm,Calm,-,N/A,,Clear,0,2013-07-18 09:53:00
5:53 AM,79.0,72.0,79,30.15,10.0,Calm,Calm,-,N/A,,Clear,0,2013-07-18 10:53:00
6:53 AM,80.1,73.0,79,30.15,10.0,Calm,Calm,-,N/A,,Clear,0,2013-07-18 11:53:00
7:53 AM,84.0,73.0,69,30.16,10.0,NE,5.8,-,N/A,,Clear,50,2013-07-18 12:53:00
8:53 AM,87.1,73.9,65,30.16,10.0,ENE,5.8,-,N/A,,Clear,70,2013-07-18 13:53:00
9:53 AM,90.0,75.0,61,30.16,10.0,East,4.6,-,N/A,,Clear,80,2013-07-18 14:53:00
10:53 AM,93.0,71.1,49,30.16,10.0,NE,6.9,-,N/A,,Clear,50,2013-07-18 15:53:00
11:31 AM,93.2,71.6,49,30.15,10.0,Variable,4.6,-,N/A,Thunderstorm,Clear,0,2013-07-18 16:31:00
11:53 AM,93.0,72.0,50,30.13,10.0,ESE,3.5,-,N/A,Thunderstorm,Clear,110,2013-07-18 16:53:00
12:53 PM,91.0,70.0,50,30.11,10.0,West,9.2,-,N/A,Thunderstorm,Scattered Clouds,280,2013-07-18 17:53:00
1:53 PM,93.0,70.0,47,30.08,10.0,NNE,10.4,19.6,N/A,Thunderstorm,Thunderstorm,20,2013-07-18 18:53:00
2:14 PM,91.4,69.8,49,30.08,10.0,Variable,4.6,-,N/A,,Clear,0,2013-07-18 19:14:00
2:33 PM,96.8,69.8,41,30.06,10.0,Variable,4.6,-,N/A,Thunderstorm,Clear,0,2013-07-18 19:33:00
2:53 PM,93.9,69.1,44,30.04,10.0,NNE,10.4,-,N/A,Thunderstorm,Clear,30,2013-07-18 19:53:00
3:24 PM,89.6,66.2,46,30.05,10.0,North,5.8,-,N/A,,Clear,10,2013-07-18 20:24:00
3:42 PM,89.6,69.8,52,30.06,10.0,Calm,Calm,-,N/A,Thunderstorm,Clear,0,2013-07-18 20:42:00
3:53 PM,89.1,70.0,53,30.06,10.0,Calm,Calm,-,N/A,Thunderstorm,Clear,0,2013-07-18 20:53:00
4:53 PM,77.0,70.0,79,30.05,7.0,NNE,10.4,-,0.01,Rain-Thunderstorm,Light Thunderstorms and Rain,30,2013-07-18 21:53:00
5:46 PM,78.8,71.6,78,30.09,10.0,SE,11.5,20.7,0.01,Rain,Light Rain,140,2013-07-18 22:46:00
5:53 PM,77.0,71.1,82,30.09,10.0,SE,12.7,-,0.01,Rain-Thunderstorm,Light Rain,130,2013-07-18 22:53:00
6:53 PM,75.0,71.1,87,30.09,10.0,SW,8.1,-,0.02,Thunderstorm,Scattered Clouds,220,2013-07-18 23:53:00
7:04 PM,75.2,71.6,89,30.09,10.0,SSW,8.1,-,N/A,,Partly Cloudy,210,2013-07-19 00:04:00
7:53 PM,75.0,71.1,87,30.06,10.0,Calm,Calm,-,0.01,Rain,Light Rain,0,2013-07-19 00:53:00
8:53 PM,75.0,71.1,87,30.05,10.0,West,6.9,-,0.00,,Partly Cloudy,280,2013-07-19 01:53:00
9:53 PM,73.9,71.1,91,30.05,10.0,Calm,Calm,-,N/A,,Clear,0,2013-07-19 02:53:00
10:53 PM,73.0,71.1,93,30.06,10.0,Calm,Calm,-,N/A,,Clear,0,2013-07-19 03:53:00
11:53 PM,73.0,71.1,93,30.05,8.0,Calm,Calm,-,N/A,,Clear,0,2013-07-19 04:53:00